Year,Month,Day,Hour,Minute,Value (Times are PST for windgust in km/hr)
2014,03,29,00,00,6.40
2014,03,29,00,01,3.20
2014,03,29,00,02,1.60
2014,03,29,00,05,3.20
2014,03,29,00,06,1.60
2014,03,29,00,07,1.60
2014,03,29,00,08,3.20
2014,03,29,00,09,3.20
2014,03,29,00,10,3.20
2014,03,29,00,11,1.60
2014,03,29,00,13,1.60
2014,03,29,00,14,3.20
2014,03,29,00,15,3.20
2014,03,29,00,16,1.60
2014,03,29,00,17,1.60
2014,03,29,00,18,1.60
2014,03,29,00,19,1.60
2014,03,29,00,20,3.20
2014,03,29,00,21,3.20
2014,03,29,00,22,3.20
2014,03,29,00,23,3.20
2014,03,29,00,24,3.20
2014,03,29,00,25,3.20
2014,03,29,00,26,4.80
2014,03,29,00,27,3.20
2014,03,29,00,28,3.20
2014,03,29,00,29,1.60
2014,03,29,00,30,1.60
2014,03,29,00,31,1.60
2014,03,29,00,32,1.60
2014,03,29,00,33,3.20
2014,03,29,00,34,3.20
2014,03,29,00,35,4.80
2014,03,29,00,36,3.20
2014,03,29,00,37,1.60
2014,03,29,00,38,1.60
2014,03,29,00,39,1.60
2014,03,29,00,40,1.60
2014,03,29,00,41,1.60
2014,03,29,00,42,1.60
2014,03,29,00,43,1.60
2014,03,29,00,44,3.20
2014,03,29,00,45,3.20
2014,03,29,00,46,3.20
2014,03,29,00,47,3.20
2014,03,29,00,48,4.80
2014,03,29,00,49,3.20
2014,03,29,00,50,3.20
2014,03,29,00,51,4.80
2014,03,29,00,52,3.20
2014,03,29,00,53,3.20
2014,03,29,00,54,1.60
2014,03,29,00,55,1.60
2014,03,29,00,56,1.60
2014,03,29,00,57,1.60
2014,03,29,00,58,1.60
2014,03,29,00,59,3.20
2014,03,29,01,00,3.20
2014,03,29,01,01,3.20
2014,03,29,01,02,3.20
2014,03,29,01,03,3.20
2014,03,29,01,04,4.80
2014,03,29,01,05,4.80
2014,03,29,01,06,3.20
2014,03,29,01,07,3.20
2014,03,29,01,08,3.20
2014,03,29,01,09,3.20
2014,03,29,01,10,4.80
2014,03,29,01,11,3.20
2014,03,29,01,12,3.20
2014,03,29,01,13,3.20
2014,03,29,01,14,1.60
2014,03,29,01,15,1.60
2014,03,29,01,18,1.60
2014,03,29,01,19,1.60
2014,03,29,01,20,1.60
2014,03,29,01,21,1.60
2014,03,29,01,22,3.20
2014,03,29,01,23,3.20
2014,03,29,01,24,4.80
2014,03,29,01,25,3.20
2014,03,29,01,26,3.20
2014,03,29,01,27,4.80
2014,03,29,01,28,3.20
2014,03,29,01,29,4.80
2014,03,29,01,30,3.20
2014,03,29,01,31,4.80
2014,03,29,01,32,4.80
2014,03,29,01,33,3.20
2014,03,29,01,34,1.60
2014,03,29,01,35,4.80
2014,03,29,01,36,4.80
2014,03,29,01,37,4.80
2014,03,29,01,38,4.80
2014,03,29,01,39,3.20
2014,03,29,01,40,1.60
2014,03,29,01,41,3.20
2014,03,29,01,42,3.20
2014,03,29,01,43,4.80
2014,03,29,01,44,3.20
2014,03,29,01,45,3.20
2014,03,29,01,46,3.20
2014,03,29,01,47,1.60
2014,03,29,01,48,1.60
2014,03,29,01,49,3.20
2014,03,29,01,50,3.20
2014,03,29,01,51,3.20
2014,03,29,01,52,4.80
2014,03,29,01,53,4.80
2014,03,29,01,54,1.60
2014,03,29,01,55,1.60
2014,03,29,01,56,1.60
2014,03,29,01,57,3.20
2014,03,29,01,58,3.20
2014,03,29,01,59,3.20
2014,03,29,02,00,3.20
2014,03,29,02,01,3.20
2014,03,29,02,02,1.60
2014,03,29,02,03,1.60
2014,03,29,02,04,3.20
2014,03,29,02,05,1.60
2014,03,29,02,06,3.20
2014,03,29,02,07,3.20
2014,03,29,02,08,3.20
2014,03,29,02,09,4.80
2014,03,29,02,10,4.80
2014,03,29,02,11,3.20
2014,03,29,02,12,3.20
2014,03,29,02,13,1.60
2014,03,29,02,14,3.20
2014,03,29,02,15,3.20
2014,03,29,02,16,3.20
2014,03,29,02,17,4.80
2014,03,29,02,18,6.40
2014,03,29,02,19,4.80
2014,03,29,02,20,3.20
2014,03,29,02,21,4.80
2014,03,29,02,22,4.80
2014,03,29,02,23,6.40
2014,03,29,02,24,6.40
2014,03,29,02,25,6.40
2014,03,29,02,26,6.40
2014,03,29,02,27,4.80
2014,03,29,02,28,4.80
2014,03,29,02,29,4.80
2014,03,29,02,30,3.20
2014,03,29,02,31,3.20
2014,03,29,02,32,3.20
2014,03,29,02,33,3.20
2014,03,29,02,34,4.80
2014,03,29,02,35,3.20
2014,03,29,02,36,3.20
2014,03,29,02,37,3.20
2014,03,29,02,38,3.20
2014,03,29,02,39,4.80
2014,03,29,02,40,1.60
2014,03,29,02,41,8.10
2014,03,29,02,42,4.80
2014,03,29,02,43,4.80
2014,03,29,02,44,4.80
2014,03,29,02,45,4.80
2014,03,29,02,46,4.80
2014,03,29,02,47,3.20
2014,03,29,02,48,4.80
2014,03,29,02,49,8.10
2014,03,29,02,50,3.20
2014,03,29,02,51,4.80
2014,03,29,02,52,4.80
2014,03,29,02,53,12.90
2014,03,29,02,54,8.10
2014,03,29,02,55,9.60
2014,03,29,02,56,4.80
2014,03,29,02,57,3.20
2014,03,29,02,58,3.20
2014,03,29,02,59,12.90
2014,03,29,03,00,6.40
2014,03,29,03,01,3.20
2014,03,29,03,02,8.10
2014,03,29,03,03,8.10
2014,03,29,03,04,8.10
2014,03,29,03,05,11.30
2014,03,29,03,06,11.30
2014,03,29,03,07,8.10
2014,03,29,03,08,8.10
2014,03,29,03,09,8.10
2014,03,29,03,10,11.30
2014,03,29,03,11,6.40
2014,03,29,03,12,9.60
2014,03,29,03,13,6.40
2014,03,29,03,14,9.60
2014,03,29,03,15,12.90
2014,03,29,03,16,11.30
2014,03,29,03,17,6.40
2014,03,29,03,18,4.80
2014,03,29,03,19,6.40
2014,03,29,03,20,6.40
2014,03,29,03,21,6.40
2014,03,29,03,22,6.40
2014,03,29,03,23,9.60
2014,03,29,03,24,8.10
2014,03,29,03,25,6.40
2014,03,29,03,26,4.80
2014,03,29,03,27,3.20
2014,03,29,03,28,9.60
2014,03,29,03,29,9.60
2014,03,29,03,30,9.60
2014,03,29,03,31,9.60
2014,03,29,03,32,12.90
2014,03,29,03,33,9.60
2014,03,29,03,34,6.40
2014,03,29,03,35,9.60
2014,03,29,03,36,3.20
2014,03,29,03,37,14.50
2014,03,29,03,38,17.70
2014,03,29,03,39,19.30
2014,03,29,03,40,14.50
2014,03,29,03,41,16.10
2014,03,29,03,42,12.90
2014,03,29,03,43,11.30
2014,03,29,03,44,8.10
2014,03,29,03,45,12.90
2014,03,29,03,46,14.50
2014,03,29,03,47,11.30
2014,03,29,03,48,12.90
2014,03,29,03,49,17.70
2014,03,29,03,50,16.10
2014,03,29,03,51,14.50
2014,03,29,03,52,12.90
2014,03,29,03,53,12.90
2014,03,29,03,54,8.10
2014,03,29,03,55,14.50
2014,03,29,03,56,14.50
2014,03,29,03,57,17.70
2014,03,29,03,58,16.10
2014,03,29,03,59,16.10
2014,03,29,04,00,9.60
2014,03,29,04,01,8.10
2014,03,29,04,02,9.60
2014,03,29,04,03,4.80
2014,03,29,04,04,8.10
2014,03,29,04,05,9.60
2014,03,29,04,06,14.50
2014,03,29,04,07,14.50
2014,03,29,04,08,9.60
2014,03,29,04,09,8.10
2014,03,29,04,10,4.80
2014,03,29,04,11,8.10
2014,03,29,04,12,9.60
2014,03,29,04,13,4.80
2014,03,29,04,14,11.30
2014,03,29,04,15,6.40
2014,03,29,04,16,4.80
2014,03,29,04,17,8.10
2014,03,29,04,18,11.30
2014,03,29,04,19,6.40
2014,03,29,04,20,14.50
2014,03,29,04,21,8.10
2014,03,29,04,22,9.60
2014,03,29,04,23,8.10
2014,03,29,04,24,8.10
2014,03,29,04,25,11.30
2014,03,29,04,26,11.30
2014,03,29,04,27,11.30
2014,03,29,04,28,9.60
2014,03,29,04,29,4.80
2014,03,29,04,30,16.10
2014,03,29,04,31,6.40
2014,03,29,04,32,6.40
2014,03,29,04,33,6.40
2014,03,29,04,34,3.20
2014,03,29,04,35,9.60
2014,03,29,04,36,6.40
2014,03,29,04,37,12.90
2014,03,29,04,38,11.30
2014,03,29,04,39,9.60
2014,03,29,04,40,6.40
2014,03,29,04,41,1.60
2014,03,29,04,42,6.40
2014,03,29,04,43,8.10
2014,03,29,04,44,4.80
2014,03,29,04,45,9.60
2014,03,29,04,46,8.10
2014,03,29,04,47,9.60
2014,03,29,04,48,3.20
2014,03,29,04,49,9.60
2014,03,29,04,50,11.30
2014,03,29,04,51,9.60
2014,03,29,04,52,11.30
2014,03,29,04,53,8.10
2014,03,29,04,54,12.90
2014,03,29,04,55,9.60
2014,03,29,04,56,8.10
2014,03,29,04,57,6.40
2014,03,29,04,58,4.80
2014,03,29,04,59,9.60
2014,03,29,05,00,6.40
2014,03,29,05,01,4.80
2014,03,29,05,02,9.60
2014,03,29,05,03,14.50
2014,03,29,05,04,11.30
2014,03,29,05,05,4.80
2014,03,29,05,06,9.60
2014,03,29,05,07,12.90
2014,03,29,05,08,11.30
2014,03,29,05,09,9.60
2014,03,29,05,10,8.10
2014,03,29,05,11,8.10
2014,03,29,05,12,14.50
2014,03,29,05,13,12.90
2014,03,29,05,14,4.80
2014,03,29,05,15,8.10
2014,03,29,05,16,6.40
2014,03,29,05,17,6.40
2014,03,29,05,18,11.30
2014,03,29,05,19,3.20
2014,03,29,05,20,4.80
2014,03,29,05,21,3.20
2014,03,29,05,22,4.80
2014,03,29,05,23,8.10
2014,03,29,05,24,6.40
2014,03,29,05,25,3.20
2014,03,29,05,26,3.20
2014,03,29,05,27,6.40
2014,03,29,05,28,6.40
2014,03,29,05,29,8.10
2014,03,29,05,30,6.40
2014,03,29,05,31,8.10
2014,03,29,05,32,6.40
2014,03,29,05,33,4.80
2014,03,29,05,34,8.10
2014,03,29,05,35,6.40
2014,03,29,05,36,3.20
2014,03,29,05,37,4.80
2014,03,29,05,38,9.60
2014,03,29,05,39,4.80
2014,03,29,05,40,8.10
2014,03,29,05,41,4.80
2014,03,29,05,42,3.20
2014,03,29,05,43,6.40
2014,03,29,05,44,4.80
2014,03,29,05,45,4.80
2014,03,29,05,46,4.80
2014,03,29,05,47,8.10
2014,03,29,05,48,8.10
2014,03,29,05,49,3.20
2014,03,29,05,50,6.40
2014,03,29,05,51,8.10
2014,03,29,05,52,8.10
2014,03,29,05,53,6.40
2014,03,29,05,54,8.10
2014,03,29,05,55,6.40
2014,03,29,05,56,4.80
2014,03,29,05,57,4.80
2014,03,29,05,58,3.20
2014,03,29,05,59,3.20
2014,03,29,06,00,6.40
2014,03,29,06,01,3.20
2014,03,29,06,02,3.20
2014,03,29,06,03,3.20
2014,03,29,06,04,3.20
2014,03,29,06,05,3.20
2014,03,29,06,06,4.80
2014,03,29,06,07,3.20
2014,03,29,06,08,3.20
2014,03,29,06,09,3.20
2014,03,29,06,10,3.20
2014,03,29,06,11,3.20
2014,03,29,06,12,4.80
2014,03,29,06,13,4.80
2014,03,29,06,14,4.80
2014,03,29,06,15,6.40
2014,03,29,06,16,6.40
2014,03,29,06,17,3.20
2014,03,29,06,18,3.20
2014,03,29,06,19,1.60
2014,03,29,06,20,3.20
2014,03,29,06,21,3.20
2014,03,29,06,22,4.80
2014,03,29,06,23,1.60
2014,03,29,06,24,4.80
2014,03,29,06,25,4.80
2014,03,29,06,26,6.40
2014,03,29,06,27,1.60
2014,03,29,06,28,3.20
2014,03,29,06,29,4.80
2014,03,29,06,30,4.80
2014,03,29,06,31,3.20
2014,03,29,06,32,3.20
2014,03,29,06,33,3.20
2014,03,29,06,34,1.60
2014,03,29,06,35,3.20
2014,03,29,06,36,4.80
2014,03,29,06,37,4.80
2014,03,29,06,38,4.80
2014,03,29,06,39,4.80
2014,03,29,06,40,4.80
2014,03,29,06,41,3.20
2014,03,29,06,42,3.20
2014,03,29,06,43,4.80
2014,03,29,06,44,6.40
2014,03,29,06,45,3.20
2014,03,29,06,46,4.80
2014,03,29,06,47,6.40
2014,03,29,06,48,4.80
2014,03,29,06,49,3.20
2014,03,29,06,50,3.20
2014,03,29,06,51,4.80
2014,03,29,06,52,3.20
2014,03,29,06,53,4.80
2014,03,29,06,54,6.40
2014,03,29,06,55,6.40
2014,03,29,06,56,3.20
2014,03,29,06,57,4.80
2014,03,29,06,58,4.80
2014,03,29,06,59,3.20
2014,03,29,07,00,4.80
2014,03,29,07,01,3.20
2014,03,29,07,02,3.20
2014,03,29,07,03,3.20
2014,03,29,07,04,4.80
2014,03,29,07,05,3.20
2014,03,29,07,06,6.40
2014,03,29,07,07,6.40
2014,03,29,07,08,4.80
2014,03,29,07,09,8.10
2014,03,29,07,10,9.60
2014,03,29,07,11,9.60
2014,03,29,07,12,8.10
2014,03,29,07,13,8.10
2014,03,29,07,14,8.10
2014,03,29,07,15,8.10
2014,03,29,07,16,6.40
2014,03,29,07,17,6.40
2014,03,29,07,18,8.10
2014,03,29,07,19,6.40
2014,03,29,07,20,6.40
2014,03,29,07,21,8.10
2014,03,29,07,22,12.90
2014,03,29,07,23,11.30
2014,03,29,07,24,14.50
2014,03,29,07,25,11.30
2014,03,29,07,26,8.10
2014,03,29,07,27,12.90
2014,03,29,07,28,11.30
2014,03,29,07,29,12.90
2014,03,29,07,30,11.30
2014,03,29,07,31,12.90
2014,03,29,07,32,11.30
2014,03,29,07,33,9.60
2014,03,29,07,34,9.60
2014,03,29,07,35,6.40
2014,03,29,07,36,12.90
2014,03,29,07,37,14.50
2014,03,29,07,38,11.30
2014,03,29,07,39,9.60
2014,03,29,07,40,16.10
2014,03,29,07,41,17.70
2014,03,29,07,42,11.30
2014,03,29,07,43,16.10
2014,03,29,07,44,17.70
2014,03,29,07,45,16.10
2014,03,29,07,46,16.10
2014,03,29,07,47,14.50
2014,03,29,07,48,17.70
2014,03,29,07,49,11.30
2014,03,29,07,50,17.70
2014,03,29,07,51,17.70
2014,03,29,07,52,14.50
2014,03,29,07,53,22.50
2014,03,29,07,54,11.30
2014,03,29,07,55,12.90
2014,03,29,07,56,6.40
2014,03,29,07,57,16.10
2014,03,29,07,58,14.50
2014,03,29,07,59,6.40
2014,03,29,08,00,9.60
2014,03,29,08,01,14.50
2014,03,29,08,02,20.90
2014,03,29,08,03,20.90
2014,03,29,08,04,22.50
2014,03,29,08,05,19.30
2014,03,29,08,06,17.70
2014,03,29,08,07,14.50
2014,03,29,08,08,12.90
2014,03,29,08,09,8.10
2014,03,29,08,10,17.70
2014,03,29,08,11,12.90
2014,03,29,08,12,17.70
2014,03,29,08,13,20.90
2014,03,29,08,14,17.70
2014,03,29,08,15,16.10
2014,03,29,08,16,19.30
2014,03,29,08,17,20.90
2014,03,29,08,18,20.90
2014,03,29,08,19,19.30
2014,03,29,08,20,16.10
2014,03,29,08,21,8.10
2014,03,29,08,22,16.10
2014,03,29,08,23,16.10
2014,03,29,08,24,12.90
2014,03,29,08,25,12.90
2014,03,29,08,26,12.90
2014,03,29,08,27,14.50
2014,03,29,08,28,11.30
2014,03,29,08,29,12.90
2014,03,29,08,30,14.50
2014,03,29,08,31,16.10
2014,03,29,08,32,16.10
2014,03,29,08,33,14.50
2014,03,29,08,34,20.90
2014,03,29,08,35,17.70
2014,03,29,08,36,19.30
2014,03,29,08,37,19.30
2014,03,29,08,38,17.70
2014,03,29,08,39,22.50
2014,03,29,08,40,16.10
2014,03,29,08,41,12.90
2014,03,29,08,42,12.90
2014,03,29,08,43,14.50
2014,03,29,08,44,11.30
2014,03,29,08,45,9.60
2014,03,29,08,46,14.50
2014,03,29,08,47,11.30
2014,03,29,08,48,14.50
2014,03,29,08,49,6.40
2014,03,29,08,50,12.90
2014,03,29,08,51,14.50
2014,03,29,08,52,19.30
2014,03,29,08,53,14.50
2014,03,29,08,54,14.50
2014,03,29,08,55,17.70
2014,03,29,08,56,17.70
2014,03,29,08,57,12.90
2014,03,29,08,58,14.50
2014,03,29,08,59,8.10
2014,03,29,09,00,17.70
2014,03,29,09,01,14.50
2014,03,29,09,02,20.90
2014,03,29,09,03,24.20
2014,03,29,09,04,17.70
2014,03,29,09,05,17.70
2014,03,29,09,06,17.70
2014,03,29,09,07,11.30
2014,03,29,09,08,17.70
2014,03,29,09,09,16.10
2014,03,29,09,10,14.50
2014,03,29,09,11,12.90
2014,03,29,09,12,19.30
2014,03,29,09,13,12.90
2014,03,29,09,14,14.50
2014,03,29,09,15,20.90
2014,03,29,09,16,16.10
2014,03,29,09,17,14.50
2014,03,29,09,18,22.50
2014,03,29,09,19,14.50
2014,03,29,09,20,17.70
2014,03,29,09,21,19.30
2014,03,29,09,22,16.10
2014,03,29,09,23,12.90
2014,03,29,09,24,16.10
2014,03,29,09,25,11.30
2014,03,29,09,26,14.50
2014,03,29,09,27,12.90
2014,03,29,09,28,11.30
2014,03,29,09,29,16.10
2014,03,29,09,30,16.10
2014,03,29,09,31,11.30
2014,03,29,09,32,14.50
2014,03,29,09,33,17.70
2014,03,29,09,34,14.50
2014,03,29,09,35,17.70
2014,03,29,09,36,17.70
2014,03,29,09,37,17.70
2014,03,29,09,38,14.50
2014,03,29,09,39,8.10
2014,03,29,09,40,16.10
2014,03,29,09,41,22.50
2014,03,29,09,42,22.50
2014,03,29,09,43,19.30
2014,03,29,09,44,17.70
2014,03,29,09,45,14.50
2014,03,29,09,46,27.40
2014,03,29,09,47,24.20
2014,03,29,09,48,22.50
2014,03,29,09,49,16.10
2014,03,29,09,50,17.70
2014,03,29,09,51,19.30
2014,03,29,09,52,16.10
2014,03,29,09,53,14.50
2014,03,29,09,54,22.50
2014,03,29,09,55,24.20
2014,03,29,09,56,12.90
2014,03,29,09,57,12.90
2014,03,29,09,58,19.30
2014,03,29,09,59,16.10
2014,03,29,10,00,16.10
2014,03,29,10,01,22.50
2014,03,29,10,02,19.30
2014,03,29,10,03,19.30
2014,03,29,10,04,14.50
2014,03,29,10,05,17.70
2014,03,29,10,06,17.70
2014,03,29,10,07,19.30
2014,03,29,10,08,24.20
2014,03,29,10,09,8.10
2014,03,29,10,10,12.90
2014,03,29,10,11,17.70
2014,03,29,10,12,14.50
2014,03,29,10,13,9.60
2014,03,29,10,14,14.50
2014,03,29,10,15,19.30
2014,03,29,10,16,19.30
2014,03,29,10,17,11.30
2014,03,29,10,18,22.50
2014,03,29,10,19,17.70
2014,03,29,10,20,22.50
2014,03,29,10,21,14.50
2014,03,29,10,22,16.10
2014,03,29,10,23,19.30
2014,03,29,10,24,19.30
2014,03,29,10,25,19.30
2014,03,29,10,26,20.90
2014,03,29,10,27,20.90
2014,03,29,10,28,14.50
2014,03,29,10,29,17.70
2014,03,29,10,30,16.10
2014,03,29,10,31,16.10
2014,03,29,10,32,16.10
2014,03,29,10,33,12.90
2014,03,29,10,34,17.70
2014,03,29,10,35,16.10
2014,03,29,10,36,19.30
2014,03,29,10,37,22.50
2014,03,29,10,38,12.90
2014,03,29,10,39,14.50
2014,03,29,10,40,20.90
2014,03,29,10,41,11.30
2014,03,29,10,42,16.10
2014,03,29,10,43,20.90
2014,03,29,10,44,11.30
2014,03,29,10,45,9.60
2014,03,29,10,46,20.90
2014,03,29,10,47,17.70
2014,03,29,10,48,14.50
2014,03,29,10,49,16.10
2014,03,29,10,50,9.60
2014,03,29,10,51,6.40
2014,03,29,10,52,11.30
2014,03,29,10,53,17.70
2014,03,29,10,54,11.30
2014,03,29,10,55,11.30
2014,03,29,10,56,14.50
2014,03,29,10,57,9.60
2014,03,29,10,58,8.10
2014,03,29,10,59,14.50
2014,03,29,11,00,12.90
2014,03,29,11,01,20.90
2014,03,29,11,02,12.90
2014,03,29,11,03,20.90
2014,03,29,11,04,17.70
2014,03,29,11,05,27.40
2014,03,29,11,06,17.70
2014,03,29,11,07,16.10
2014,03,29,11,08,12.90
2014,03,29,11,09,20.90
2014,03,29,11,10,8.10
2014,03,29,11,11,9.60
2014,03,29,11,12,11.30
2014,03,29,11,13,20.90
2014,03,29,11,14,14.50
2014,03,29,11,15,11.30
2014,03,29,11,16,11.30
2014,03,29,11,17,17.70
2014,03,29,11,18,17.70
2014,03,29,11,19,16.10
2014,03,29,11,20,16.10
2014,03,29,11,21,12.90
2014,03,29,11,22,16.10
2014,03,29,11,23,12.90
2014,03,29,11,24,14.50
2014,03,29,11,25,16.10
2014,03,29,11,26,12.90
2014,03,29,11,27,11.30
2014,03,29,11,28,12.90
2014,03,29,11,29,11.30
2014,03,29,11,30,17.70
2014,03,29,11,31,16.10
2014,03,29,11,32,20.90
2014,03,29,11,33,24.20
2014,03,29,11,34,20.90
2014,03,29,11,35,16.10
2014,03,29,11,36,9.60
2014,03,29,11,37,17.70
2014,03,29,11,38,14.50
2014,03,29,11,39,22.50
2014,03,29,11,40,19.30
2014,03,29,11,41,14.50
2014,03,29,11,42,12.90
2014,03,29,11,43,12.90
2014,03,29,11,44,16.10
2014,03,29,11,45,11.30
2014,03,29,11,46,19.30
2014,03,29,11,47,12.90
2014,03,29,11,48,14.50
2014,03,29,11,49,17.70
2014,03,29,11,50,24.20
2014,03,29,11,51,14.50
2014,03,29,11,52,20.90
2014,03,29,11,53,19.30
2014,03,29,11,54,16.10
2014,03,29,11,55,22.50
2014,03,29,11,56,16.10
2014,03,29,11,57,19.30
2014,03,29,11,58,22.50
2014,03,29,11,59,19.30
2014,03,29,12,00,17.70
2014,03,29,12,01,17.70
2014,03,29,12,02,22.50
2014,03,29,12,03,11.30
2014,03,29,12,04,20.90
2014,03,29,12,05,19.30
2014,03,29,12,06,17.70
2014,03,29,12,07,12.90
2014,03,29,12,08,9.60
2014,03,29,12,09,17.70
2014,03,29,12,10,14.50
2014,03,29,12,11,22.50
2014,03,29,12,12,22.50
2014,03,29,12,13,19.30
2014,03,29,12,14,14.50
2014,03,29,12,15,17.70
2014,03,29,12,16,14.50
2014,03,29,12,17,22.50
2014,03,29,12,18,27.40
2014,03,29,12,19,20.90
2014,03,29,12,20,14.50
2014,03,29,12,21,20.90
2014,03,29,12,22,19.30
2014,03,29,12,23,14.50
2014,03,29,12,24,24.20
2014,03,29,12,25,17.70
2014,03,29,12,26,14.50
2014,03,29,12,27,16.10
2014,03,29,12,28,16.10
2014,03,29,12,29,14.50
2014,03,29,12,30,19.30
2014,03,29,12,31,17.70
2014,03,29,12,32,16.10
2014,03,29,12,33,17.70
2014,03,29,12,34,20.90
2014,03,29,12,35,20.90
2014,03,29,12,36,14.50
2014,03,29,12,37,16.10
2014,03,29,12,38,24.20
2014,03,29,12,39,24.20
2014,03,29,12,40,20.90
2014,03,29,12,41,20.90
2014,03,29,12,42,27.40
2014,03,29,12,43,19.30
2014,03,29,12,44,19.30
2014,03,29,12,45,27.40
2014,03,29,12,46,19.30
2014,03,29,12,47,29.00
2014,03,29,12,48,20.90
2014,03,29,12,49,19.30
2014,03,29,12,50,27.40
2014,03,29,12,51,22.50
2014,03,29,12,52,33.80
2014,03,29,12,53,17.70
2014,03,29,12,54,20.90
2014,03,29,12,55,25.70
2014,03,29,12,56,25.70
2014,03,29,12,57,35.40
2014,03,29,12,58,22.50
2014,03,29,12,59,25.70
2014,03,29,13,00,20.90
2014,03,29,13,01,24.20
2014,03,29,13,02,27.40
2014,03,29,13,03,24.20
2014,03,29,13,04,17.70
2014,03,29,13,05,11.30
2014,03,29,13,06,12.90
2014,03,29,13,07,12.90
2014,03,29,13,08,16.10
2014,03,29,13,09,14.50
2014,03,29,13,10,11.30
2014,03,29,13,11,17.70
2014,03,29,13,12,14.50
2014,03,29,13,13,17.70
2014,03,29,13,14,14.50
2014,03,29,13,15,17.70
2014,03,29,13,16,22.50
2014,03,29,13,17,22.50
2014,03,29,13,18,20.90
2014,03,29,13,19,20.90
2014,03,29,13,20,19.30
2014,03,29,13,21,20.90
2014,03,29,13,22,16.10
2014,03,29,13,23,16.10
2014,03,29,13,24,14.50
2014,03,29,13,25,20.90
2014,03,29,13,26,22.50
2014,03,29,13,27,16.10
2014,03,29,13,28,20.90
2014,03,29,13,29,17.70
2014,03,29,13,30,17.70
2014,03,29,13,31,16.10
2014,03,29,13,32,12.90
2014,03,29,13,33,17.70
2014,03,29,13,34,24.20
2014,03,29,13,35,24.20
2014,03,29,13,36,25.70
2014,03,29,13,37,16.10
2014,03,29,13,38,16.10
2014,03,29,13,39,17.70
2014,03,29,13,40,16.10
2014,03,29,13,41,14.50
2014,03,29,13,42,9.60
2014,03,29,13,43,22.50
2014,03,29,13,44,12.90
2014,03,29,13,45,12.90
2014,03,29,13,46,12.90
2014,03,29,13,47,16.10
2014,03,29,13,48,19.30
2014,03,29,13,49,20.90
2014,03,29,13,50,25.70
2014,03,29,13,51,14.50
2014,03,29,13,52,20.90
2014,03,29,13,53,16.10
2014,03,29,13,54,16.10
2014,03,29,13,55,19.30
2014,03,29,13,56,16.10
2014,03,29,13,57,19.30
2014,03,29,13,58,16.10
2014,03,29,13,59,14.50
2014,03,29,14,00,16.10
2014,03,29,14,01,17.70
2014,03,29,14,02,14.50
2014,03,29,14,03,8.10
2014,03,29,14,04,11.30
2014,03,29,14,05,16.10
2014,03,29,14,06,9.60
2014,03,29,14,07,14.50
2014,03,29,14,08,20.90
2014,03,29,14,09,20.90
2014,03,29,14,10,8.10
2014,03,29,14,11,12.90
2014,03,29,14,12,12.90
2014,03,29,14,13,14.50
2014,03,29,14,14,14.50
2014,03,29,14,15,12.90
2014,03,29,14,16,14.50
2014,03,29,14,17,12.90
2014,03,29,14,18,11.30
2014,03,29,14,19,11.30
2014,03,29,14,20,11.30
2014,03,29,14,21,11.30
2014,03,29,14,22,9.60
2014,03,29,14,23,6.40
2014,03,29,14,24,6.40
2014,03,29,14,25,11.30
2014,03,29,14,26,16.10
2014,03,29,14,27,16.10
2014,03,29,14,28,9.60
2014,03,29,14,29,12.90
2014,03,29,14,30,14.50
2014,03,29,14,31,12.90
2014,03,29,14,32,17.70
2014,03,29,14,33,22.50
2014,03,29,14,34,11.30
2014,03,29,14,35,22.50
2014,03,29,14,36,16.10
2014,03,29,14,37,29.00
2014,03,29,14,38,16.10
2014,03,29,14,39,14.50
2014,03,29,14,40,16.10
2014,03,29,14,41,20.90
2014,03,29,14,42,14.50
2014,03,29,14,43,12.90
2014,03,29,14,44,12.90
2014,03,29,14,45,14.50
2014,03,29,14,46,29.00
2014,03,29,14,47,22.50
2014,03,29,14,48,17.70
2014,03,29,14,49,22.50
2014,03,29,14,50,17.70
2014,03,29,14,51,20.90
2014,03,29,14,52,27.40
2014,03,29,14,53,17.70
2014,03,29,14,54,14.50
2014,03,29,14,55,16.10
2014,03,29,14,56,14.50
2014,03,29,14,57,20.90
2014,03,29,14,58,32.20
2014,03,29,14,59,30.60
2014,03,29,15,00,27.40
2014,03,29,15,01,24.20
2014,03,29,15,02,22.50
2014,03,29,15,03,17.70
2014,03,29,15,04,16.10
2014,03,29,15,05,16.10
2014,03,29,15,06,17.70
2014,03,29,15,07,27.40
2014,03,29,15,08,25.70
2014,03,29,15,09,17.70
2014,03,29,15,10,29.00
2014,03,29,15,11,16.10
2014,03,29,15,12,32.20
2014,03,29,15,13,17.70
2014,03,29,15,14,30.60
2014,03,29,15,15,25.70
2014,03,29,15,16,32.20
2014,03,29,15,17,27.40
2014,03,29,15,18,27.40
2014,03,29,15,19,17.70
2014,03,29,15,20,27.40
2014,03,29,15,21,17.70
2014,03,29,15,22,30.60
2014,03,29,15,23,27.40
2014,03,29,15,24,16.10
2014,03,29,15,25,22.50
2014,03,29,15,26,22.50
2014,03,29,15,27,17.70
2014,03,29,15,28,12.90
2014,03,29,15,29,27.40
2014,03,29,15,30,17.70
2014,03,29,15,31,12.90
2014,03,29,15,32,19.30
2014,03,29,15,33,24.20
2014,03,29,15,34,11.30
2014,03,29,15,35,24.20
2014,03,29,15,36,19.30
2014,03,29,15,37,16.10
2014,03,29,15,38,19.30
2014,03,29,15,39,12.90
2014,03,29,15,40,30.60
2014,03,29,15,41,25.70
2014,03,29,15,42,19.30
2014,03,29,15,43,22.50
2014,03,29,15,44,25.70
2014,03,29,15,45,20.90
2014,03,29,15,46,20.90
2014,03,29,15,47,16.10
2014,03,29,15,48,16.10
2014,03,29,15,49,25.70
2014,03,29,15,50,25.70
2014,03,29,15,51,27.40
2014,03,29,15,52,30.60
2014,03,29,15,53,27.40
2014,03,29,15,54,29.00
2014,03,29,15,55,35.40
2014,03,29,15,56,24.20
2014,03,29,15,57,27.40
2014,03,29,15,58,27.40
2014,03,29,15,59,22.50
2014,03,29,16,00,20.90
2014,03,29,16,01,24.20
2014,03,29,16,02,20.90
2014,03,29,16,03,24.20
2014,03,29,16,04,19.30
2014,03,29,16,05,14.50
2014,03,29,16,06,20.90
2014,03,29,16,07,22.50
2014,03,29,16,08,22.50
2014,03,29,16,09,17.70
2014,03,29,16,10,17.70
2014,03,29,16,11,17.70
2014,03,29,16,12,17.70
2014,03,29,16,13,22.50
2014,03,29,16,14,14.50
2014,03,29,16,15,22.50
2014,03,29,16,16,22.50
2014,03,29,16,17,22.50
2014,03,29,16,18,11.30
2014,03,29,16,19,14.50
2014,03,29,16,20,16.10
2014,03,29,16,21,12.90
2014,03,29,16,22,16.10
2014,03,29,16,23,20.90
2014,03,29,16,24,22.50
2014,03,29,16,25,22.50
2014,03,29,16,26,11.30
2014,03,29,16,27,12.90
2014,03,29,16,28,16.10
2014,03,29,16,29,9.60
2014,03,29,16,30,24.20
2014,03,29,16,31,24.20
2014,03,29,16,32,11.30
2014,03,29,16,33,22.50
2014,03,29,16,34,16.10
2014,03,29,16,35,8.10
2014,03,29,16,36,8.10
2014,03,29,16,37,16.10
2014,03,29,16,38,11.30
2014,03,29,16,39,17.70
2014,03,29,16,40,11.30
2014,03,29,16,41,11.30
2014,03,29,16,42,12.90
2014,03,29,16,43,16.10
2014,03,29,16,44,14.50
2014,03,29,16,45,11.30
2014,03,29,16,46,19.30
2014,03,29,16,47,16.10
2014,03,29,16,48,17.70
2014,03,29,16,49,20.90
2014,03,29,16,50,17.70
2014,03,29,16,51,20.90
2014,03,29,16,52,11.30
2014,03,29,16,53,9.60
2014,03,29,16,54,20.90
2014,03,29,16,55,17.70
2014,03,29,16,56,12.90
2014,03,29,16,57,14.50
2014,03,29,16,58,12.90
2014,03,29,16,59,16.10
2014,03,29,17,00,11.30
2014,03,29,17,01,14.50
2014,03,29,17,02,16.10
2014,03,29,17,03,17.70
2014,03,29,17,04,11.30
2014,03,29,17,05,6.40
2014,03,29,17,06,16.10
2014,03,29,17,07,16.10
2014,03,29,17,08,8.10
2014,03,29,17,09,4.80
2014,03,29,17,10,9.60
2014,03,29,17,11,6.40
2014,03,29,17,12,9.60
2014,03,29,17,13,9.60
2014,03,29,17,14,14.50
2014,03,29,17,15,8.10
2014,03,29,17,16,12.90
2014,03,29,17,17,17.70
2014,03,29,17,18,8.10
2014,03,29,17,19,12.90
2014,03,29,17,20,11.30
2014,03,29,17,21,11.30
2014,03,29,17,22,11.30
2014,03,29,17,23,14.50
2014,03,29,17,24,16.10
2014,03,29,17,25,24.20
2014,03,29,17,26,6.40
2014,03,29,17,27,14.50
2014,03,29,17,28,9.60
2014,03,29,17,29,17.70
2014,03,29,17,30,9.60
2014,03,29,17,31,16.10
2014,03,29,17,32,11.30
2014,03,29,17,33,12.90
2014,03,29,17,34,12.90
2014,03,29,17,35,6.40
2014,03,29,17,36,12.90
2014,03,29,17,37,12.90
2014,03,29,17,38,12.90
2014,03,29,17,39,8.10
2014,03,29,17,40,14.50
2014,03,29,17,41,19.30
2014,03,29,17,42,14.50
2014,03,29,17,43,12.90